When you browse on this site, cookies collect data to enhance your experience and personalize the content and advertising you see.
Visit our Privacy Policy to learn more. By continuing to use the site, you agree to this use of cookies and data.
  • In United Kingdom
  • List of Countries
  • For 7 days
  • Water Temperature
  • Weather Map
  • Weather Widgets
  • user-avatar
    Login

    Hourly Weather Naru

    Today, 16 November, Saturday

    Time Temperature Precipitation Wind Pressure Humidity
    00:00 +21°C° 0 mm 1 mps 743 mmHg 95%
    01:00 +21°C° 0 mm 1 mps 743 mmHg 97%
    02:00 +19°C° 0 mm 0 mps 743 mmHg 98%
    03:00 +19°C° 0 mm 0 mps 743 mmHg 98%
    04:00 +19°C° 0 mm 0 mps 743 mmHg 98%
    05:00 +19°C° 0 mm 0 mps 743 mmHg 96%
    06:00 +20°C° 0 mm 0 mps 743 mmHg 93%
    07:00 +21°C° 0 mm 0 mps 744 mmHg 90%
    08:00 +24°C° 0 mm 0 mps 744 mmHg 77%
    09:00 +27°C° 0 mm 0 mps 744 mmHg 64%
    10:00 +30°C° 0 mm 0 mps 745 mmHg 51%
    11:00 +32°C° 0 mm 0 mps 744 mmHg 47%
    12:00 +33°C° 0 mm 0 mps 743 mmHg 44%
    13:00 +34°C° 0 mm 0 mps 742 mmHg 41%
    14:00 +33°C° 0 mm 0 mps 742 mmHg 45%
    15:00 +33°C° 0 mm 1 mps 741 mmHg 49%
    16:00 +32°C° 0 mm 1 mps 741 mmHg 54%
    17:00 +30°C° 0 mm 1 mps 741 mmHg 62%
    18:00 +28°C° 0 mm 1 mps 741 mmHg 70%
    19:00 +24°C° 0 mm 0 mps 742 mmHg 77%
    20:00 +23°C° 0 mm 0 mps 742 mmHg 80%
    21:00 +23°C° 0 mm 0 mps 742 mmHg 84%
    22:00 +22°C° 0 mm 0 mps 743 mmHg 88%
    23:00 +22°C° 0 mm 0 mps 742 mmHg 90%

    Tomorrow, 17 November, Sunday

    Time Temperature Precipitation Wind Pressure Humidity
    00:00 +21°C° 0 mm 0 mps 742 mmHg 93%
    01:00 +21°C° 0 mm 0 mps 742 mmHg 95%
    02:00 +21°C° 0 mm 0 mps 742 mmHg 96%
    03:00 +20°C° 0 mm 0 mps 742 mmHg 97%
    04:00 +20°C° 0 mm 0 mps 742 mmHg 98%
    05:00 +21°C° 0 mm 0 mps 742 mmHg 95%
    06:00 +21°C° 0 mm 0 mps 743 mmHg 93%
    07:00 +22°C° 0 mm 0 mps 743 mmHg 91%
    08:00 +25°C° 0 mm 0 mps 743 mmHg 77%
    09:00 +28°C° 0 mm 0 mps 744 mmHg 64%
    10:00 +31°C° 0 mm 0 mps 744 mmHg 51%
    11:00 +34°C° 0 mm 1 mps 743 mmHg 48%
    12:00 +34°C° 0 mm 1 mps 742 mmHg 45%
    13:00 +35°C° 0 mm 1 mps 742 mmHg 42%
    14:00 +34°C° 0 mm 1 mps 741 mmHg 43%
    15:00 +34°C° 0 mm 1 mps 741 mmHg 45%
    16:00 +33°C° 0 mm 1 mps 741 mmHg 46%
    17:00 +31°C° 0 mm 1 mps 741 mmHg 55%
    18:00 +29°C° 0 mm 1 mps 741 mmHg 64%
    19:00 +24°C° 0 mm 0 mps 742 mmHg 72%
    20:00 +24°C° 0 mm 0 mps 742 mmHg 75%
    21:00 +23°C° 0 mm 0 mps 743 mmHg 77%
    22:00 +23°C° 0 mm 0 mps 743 mmHg 80%
    23:00 +22°C° 0 mm 0 mps 743 mmHg 83%

    Day after tomorrow, 18 November, Monday

    Time Temperature Precipitation Wind Pressure Humidity
    00:00 +22°C° 0 mm 0 mps 743 mmHg 86%
    01:00 +21°C° 0 mm 0 mps 743 mmHg 90%
    02:00 +21°C° 0 mm 0 mps 743 mmHg 92%
    03:00 +21°C° 0 mm 0 mps 743 mmHg 94%
    04:00 +21°C° 0 mm 0 mps 743 mmHg 96%
    05:00 +21°C° 0 mm 0 mps 743 mmHg 94%
    06:00 +21°C° 0 mm 0 mps 744 mmHg 92%
    07:00 +22°C° 0 mm 0 mps 744 mmHg 90%
    08:00 +27°C° 0 mm 1 mps 744 mmHg 77%
    09:00 +30°C° 0 mm 1 mps 745 mmHg 63%
    10:00 +33°C° 0 mm 1 mps 745 mmHg 50%
    11:00 +34°C° 0 mm 1 mps 744 mmHg 46%
    12:00 +36°C° 0 mm 2 mps 744 mmHg 42%
    13:00 +37°C° 0 mm 2 mps 743 mmHg 38%
    14:00 +36°C° 0 mm 2 mps 743 mmHg 42%
    15:00 +35°C° 0 mm 3 mps 742 mmHg 46%
    16:00 +33°C° 0 mm 3 mps 742 mmHg 50%
    17:00 +30°C° 0 mm 3 mps 742 mmHg 57%
    18:00 +28°C° 0 mm 3 mps 743 mmHg 65%
    19:00 +26°C° 0 mm 3 mps 743 mmHg 72%
    20:00 +25°C° 0 mm 2 mps 744 mmHg 77%
    21:00 +24°C° 0 mm 2 mps 744 mmHg 81%
    22:00 +24°C° 0 mm 2 mps 744 mmHg 85%
    23:00 +23°C° 0 mm 2 mps 744 mmHg 87%

    19 November, Tuesday

    Time Temperature Precipitation Wind Pressure Humidity
    00:00 +23°C° 0 mm 2 mps 744 mmHg 88%
    01:00 +23°C° 0 mm 2 mps 743 mmHg 89%
    02:00 +23°C° 0 mm 2 mps 743 mmHg 88%
    03:00 +23°C° 0 mm 1 mps 743 mmHg 87%
    04:00 +23°C° 0 mm 1 mps 743 mmHg 86%
    05:00 +24°C° 0 mm 2 mps 744 mmHg 84%
    06:00 +24°C° 0 mm 2 mps 744 mmHg 82%
    07:00 +25°C° 0 mm 2 mps 745 mmHg 79%
    08:00 +26°C° 0 mm 3 mps 745 mmHg 75%
    09:00 +27°C° 0 mm 3 mps 745 mmHg 70%
    10:00 +28°C° 0 mm 4 mps 746 mmHg 65%
    11:00 +29°C° 0 mm 4 mps 745 mmHg 60%
    12:00 +30°C° 0 mm 4 mps 745 mmHg 54%
    13:00 +32°C° 0 mm 4 mps 744 mmHg 48%
    14:00 +30°C° 0 mm 4 mps 744 mmHg 52%
    15:00 +29°C° 0 mm 4 mps 743 mmHg 56%
    16:00 +28°C° 0 mm 4 mps 743 mmHg 60%
    17:00 +27°C° 0 mm 3 mps 744 mmHg 66%
    18:00 +25°C° 0 mm 3 mps 744 mmHg 71%
    19:00 +24°C° 0 mm 3 mps 744 mmHg 76%
    20:00 +24°C° 0 mm 2 mps 745 mmHg 78%
    21:00 +23°C° 0 mm 2 mps 745 mmHg 81%
    22:00 +23°C° 0 mm 2 mps 745 mmHg 83%
    23:00 +23°C° 0 mm 2 mps 745 mmHg 83%

    20 November, Wednesday

    Time Temperature Precipitation Wind Pressure Humidity
    00:00 +23°C° 0 mm 2 mps 745 mmHg 83%
    01:00 +23°C° 0 mm 2 mps 744 mmHg 82%
    02:00 +23°C° 0 mm 2 mps 744 mmHg 84%
    03:00 +22°C° 0 mm 1 mps 745 mmHg 86%
    04:00 +22°C° 0 mm 1 mps 745 mmHg 88%
    05:00 +21°C° 0 mm 2 mps 745 mmHg 86%
    06:00 +21°C° 0 mm 2 mps 745 mmHg 85%
    07:00 +23°C° 0 mm 2 mps 745 mmHg 83%
    08:00 +25°C° 0 mm 3 mps 746 mmHg 74%
    09:00 +27°C° 0 mm 3 mps 746 mmHg 66%
    10:00 +29°C° 0 mm 4 mps 746 mmHg 58%
    11:00 +29°C° 0 mm 4 mps 746 mmHg 56%
    12:00 +30°C° 0 mm 4 mps 745 mmHg 54%
    13:00 +30°C° 0 mm 4 mps 744 mmHg 52%
    14:00 +29°C° 0 mm 4 mps 744 mmHg 55%
    15:00 +28°C° 0 mm 4 mps 743 mmHg 58%
    16:00 +27°C° 0 mm 4 mps 743 mmHg 61%
    17:00 +26°C° 0 mm 4 mps 744 mmHg 67%
    18:00 +24°C° 0 mm 3 mps 744 mmHg 73%
    19:00 +22°C° 0 mm 3 mps 745 mmHg 79%
    20:00 +22°C° 0 mm 3 mps 745 mmHg 80%
    21:00 +22°C° 0 mm 3 mps 745 mmHg 80%
    22:00 +23°C° 0 mm 2 mps 746 mmHg 81%
    23:00 +21°C° 0 mm 2 mps 745 mmHg 83%

    21 November, Thursday

    Time Temperature Precipitation Wind Pressure Humidity
    00:00 +21°C° 0 mm 2 mps 745 mmHg 84%
    01:00 +21°C° 0 mm 2 mps 745 mmHg 86%
    02:00 +20°C° 0 mm 2 mps 745 mmHg 87%
    03:00 +20°C° 0 mm 2 mps 745 mmHg 89%
    04:00 +21°C° 0 mm 1 mps 745 mmHg 90%
    05:00 +21°C° 0 mm 2 mps 745 mmHg 88%
    06:00 +21°C° 0 mm 2 mps 745 mmHg 86%
    07:00 +21°C° 0 mm 2 mps 746 mmHg 83%
    08:00 +24°C° 0 mm 2 mps 746 mmHg 74%
    09:00 +26°C° 0 mm 3 mps 746 mmHg 64%
    10:00 +28°C° 0 mm 4 mps 747 mmHg 55%
    11:00 +29°C° 0 mm 4 mps 746 mmHg 52%
    12:00 +30°C° 0 mm 4 mps 745 mmHg 50%
    13:00 +30°C° 0 mm 4 mps 744 mmHg 48%
    14:00 +29°C° 0 mm 4 mps 744 mmHg 51%
    15:00 +28°C° 0 mm 4 mps 744 mmHg 54%
    16:00 +28°C° 0 mm 4 mps 744 mmHg 57%
    17:00 +26°C° 0 mm 3 mps 744 mmHg 64%
    18:00 +25°C° 0 mm 3 mps 744 mmHg 71%
    19:00 +23°C° 0 mm 2 mps 744 mmHg 79%
    20:00 +23°C° 0 mm 2 mps 745 mmHg 80%
    21:00 +21°C° 0 mm 2 mps 745 mmHg 82%
    22:00 +21°C° 0 mm 2 mps 745 mmHg 83%
    23:00 +21°C° 0 mm 2 mps 745 mmHg 84%
    Show more